Date,TemperatureHighF,TemperatureAvgF,TemperatureLowF,DewpointHighF,DewpointAvgF,DewpointLowF,HumidityHigh,HumidityAvg,HumidityLow,PressureMaxIn,PressureMinIn,WindSpeedMaxMPH,WindSpeedAvgMPH,GustSpeedMaxMPH,PrecipitationSumIn
2013-1-1,15,2,-12,6,-7,-20,69,66,60,30.28,30.11,126,8,126,0.00
2013-1-2,23,18,13,14,11,2,87,74,61,30.11,29.99,25,4,26,0.00
2013-1-3,23,18,8,18,13,4,89,82,79,30.20,30.05,17,5,17,0.00
2013-1-4,32,16,6,21,9,2,96,77,62,30.20,30.02,13,4,13,0.00
2013-1-5,34,19,4,26,14,-1,97,81,69,30.20,29.87,126,3,126,0.00
2013-1-6,30,21,8,23,16,4,99,82,69,30.26,29.90,8,3,8,0.00
2013-1-7,38,24,10,27,18,5,92,77,64,30.23,29.90,18,6,18,0.00
2013-1-8,39,25,10,33,22,9,100,89,67,30.08,29.84,13,3,13,0.00
2013-1-9,39,31,18,31,24,15,93,76,57,30.43,29.84,15,5,15,0.00
2013-1-10,38,28,15,34,24,14,100,87,59,30.46,29.90,15,2,15,0.24
2013-1-11,41,37,34,41,37,34,100,100,100,29.90,29.55,9,2,9,0.06
2013-1-12,42,29,16,42,23,8,100,79,67,30.02,29.52,22,8,22,0.00
2013-1-13,16,12,6,8,5,-1,71,70,69,30.23,29.96,13,4,13,0.00
2013-1-14,18,10,4,9,2,-4,71,70,64,30.40,30.23,12,3,12,0.00
2013-1-15,32,17,3,18,8,-4,88,69,56,30.40,29.99,15,5,15,0.00
2013-1-16,32,25,17,30,17,7,97,74,58,30.11,29.69,15,7,15,0.01
2013-1-17,18,12,6,7,3,-2,69,65,59,30.37,30.11,12,3,12,0.00
2013-1-18,42,24,5,31,17,-3,97,75,64,30.37,29.75,15,4,15,0.03
2013-1-19,44,30,7,38,25,-3,100,82,58,29.99,29.61,15,5,15,0.00
2013-1-20,10,5,1,1,-4,-8,65,65,65,30.28,29.99,12,5,12,0.00
2013-1-21,4,-4,-10,-6,-13,-18,65,65,65,30.32,30.14,14,5,14,0.00
2013-1-22,1,-6,-12,-8,-15,-21,65,65,65,30.34,30.28,10,2,10,0.00
2013-1-23,14,5,-7,7,-3,-16,74,68,65,30.49,30.08,17,5,17,0.00
2013-1-24,11,4,-6,4,-4,-13,71,71,71,30.67,30.34,41,2,41,0.00
2013-1-25,21,15,10,16,9,2,90,77,68,30.34,29.93,14,5,14,0.16
2013-1-26,21,11,-5,13,5,-9,80,75,66,30.37,30.23,9,2,9,0.00
2013-1-27,32,26,21,32,21,13,100,82,67,30.32,29.87,9,3,9,0.39
2013-1-28,34,32,31,34,32,31,100,100,97,29.96,29.81,5,0,5,0.00
2013-1-29,40,35,32,40,35,32,100,100,100,29.81,29.52,9,2,9,0.28
2013-1-30,33,27,12,33,26,8,100,98,83,29.61,29.40,7,0,7,0.60
2013-1-31,12,7,-2,8,3,-6,84,84,84,30.17,29.64,0,0,0,0.00
2013-2-1,4,-3,-11,0,-6,-15,84,84,84,30.32,30.17,0,0,0,0.01
2013-2-2,15,4,-3,10,-2,-13,84,75,62,30.17,30.05,0,0,0,0.00
2013-2-3,15,8,1,5,-2,-9,64,63,62,30.05,29.96,0,0,0,0.00
2013-2-4,17,7,-3,6,-3,-12,63,61,59,30.05,29.93,0,0,0,0.01
2013-2-5,25,15,-1,21,8,-12,92,74,59,30.14,29.75,14,4,14,0.05
2013-2-6,26,12,-5,24,8,-11,100,83,70,30.23,30.11,111,2,111,0.08
2013-2-7,27,25,23,27,25,22,100,100,99,30.20,30.02,16,4,16,0.11
2013-2-8,27,15,1,22,9,-7,99,77,63,30.40,30.20,14,4,14,0.08
2013-2-9,25,16,-1,24,12,-8,98,83,71,30.40,30.08,12,4,12,0.01
2013-2-10,37,31,24,37,31,24,100,100,98,30.08,29.34,14,4,14,0.38
2013-2-11,36,30,25,36,27,17,100,87,71,29.99,29.34,18,7,18,0.11
2013-2-12,31,23,17,21,16,12,85,75,65,30.05,29.84,12,6,12,0.00
2013-2-13,38,27,13,28,22,11,100,85,63,29.84,29.64,15,2,15,0.00
2013-2-14,32,29,18,32,25,9,100,85,66,30.08,29.58,14,4,14,0.24
2013-2-15,20,12,0,9,3,-9,71,66,60,30.23,30.08,117,1,117,0.00
2013-2-16,17,6,-7,5,-4,-18,64,62,58,30.26,30.14,136,7,136,0.00
2013-2-17,23,7,-13,13,-4,-23,68,60,57,30.26,29.90,136,3,136,0.00
2013-2-18,43,30,21,34,24,12,100,78,63,29.90,29.52,53,1,58,0.00
2013-2-19,24,11,4,24,7,0,100,85,80,30.20,29.55,23,2,23,0.04
2013-2-20,25,13,2,12,5,-2,83,71,57,30.43,30.20,125,6,136,0.00
2013-2-21,22,12,-2,22,5,-9,100,74,68,30.49,30.17,96,3,96,0.00
2013-2-22,32,26,21,28,24,18,100,95,79,30.17,29.81,93,3,93,0.45
2013-2-23,31,26,22,26,22,16,100,88,68,29.93,29.81,76,4,97,0.07
2013-2-24,37,26,13,27,21,10,92,81,65,30.14,29.93,126,2,126,0.04
2013-2-25,36,24,10,29,19,7,100,83,65,30.17,30.08,55,2,71,0.00
2013-2-26,39,28,17,28,23,15,100,82,63,30.11,29.78,86,4,93,0.00
2013-2-27,35,32,29,33,28,23,100,85,70,29.87,29.72,20,7,20,0.00
2013-2-28,32,30,23,26,22,14,84,71,62,30.20,29.87,17,7,17,0.00
2013-3-1,32,25,17,18,14,6,74,64,56,30.32,30.20,13,6,13,0.00
2013-3-2,28,18,7,14,8,-1,72,64,53,30.32,30.17,13,3,13,0.00
2013-3-3,34,14,-2,18,3,-9,79,62,50,30.23,30.08,8,1,8,0.00
2013-3-4,34,20,5,20,10,-6,81,65,56,30.17,30.05,75,4,82,0.00
2013-3-5,31,26,24,28,21,16,100,80,68,30.17,29.96,13,5,13,0.03
2013-3-6,33,25,9,24,19,5,93,77,65,30.34,30.17,9,3,9,0.00
2013-3-7,37,19,4,23,11,0,95,74,56,30.43,30.34,8,1,8,0.00
2013-3-8,42,27,12,29,20,8,97,76,58,30.46,30.26,55,2,55,0.00
2013-3-9,39,34,29,35,30,24,100,86,75,30.26,29.81,10,3,10,0.36
2013-3-10,38,35,31,38,35,31,100,99,89,29.87,29.75,15,4,15,0.44
2013-3-11,34,31,26,34,28,20,100,91,75,29.78,29.58,10,3,10,0.09
2013-3-12,30,26,20,25,19,13,99,76,61,30.05,29.78,0,0,0,0.00
2013-3-13,30,22,16,16,12,8,81,65,50,30.32,30.05,0,0,0,0.00
2013-3-14,36,23,8,26,15,0,93,72,57,30.32,30.05,6,0,6,0.04
2013-3-15,38,30,24,34,28,23,100,95,80,30.05,29.87,6,1,6,0.07
2013-3-16,30,22,17,24,15,9,100,74,60,30.17,29.90,0,0,0,0.21
2013-3-17,30,18,7,16,8,-2,77,65,55,30.32,30.08,0,0,0,0.00
2013-3-18,33,23,14,29,19,9,93,86,77,30.08,29.58,0,0,0,0.37
2013-3-19,25,18,12,12,9,4,83,69,57,30.02,29.67,16,2,16,0.00
2013-3-20,18,11,4,6,0,-6,63,61,59,30.11,30.02,13,4,13,0.00
2013-3-21,28,15,3,15,5,-7,70,63,57,30.11,30.02,13,2,13,0.00
2013-3-22,37,19,0,22,9,-7,84,66,55,30.11,29.99,10,2,11,0.00
2013-3-23,43,27,12,28,19,8,92,73,54,30.14,30.08,8,1,8,0.00
2013-3-24,36,31,28,25,22,19,80,71,60,30.11,29.87,15,5,15,0.00
2013-3-25,37,30,21,25,21,16,91,69,57,30.14,29.90,14,6,14,0.00
2013-3-26,40,33,28,27,23,19,75,65,56,30.26,30.14,12,3,12,0.00
2013-3-27,43,34,23,27,23,17,78,62,53,30.32,30.26,12,2,12,0.00
2013-3-28,46,31,15,29,21,13,98,70,50,30.34,30.26,8,2,8,0.00
2013-3-29,53,34,18,35,24,16,99,68,48,30.34,30.20,9,2,9,0.00
2013-3-30,46,38,31,40,32,23,100,78,65,30.20,29.84,10,4,156,0.21
2013-3-31,41,35,29,37,29,16,100,81,54,29.96,29.69,10,4,11,0.00
2013-4-1,31,26,20,18,14,8,65,58,55,30.17,29.96,13,4,13,0.00
2013-4-2,35,27,18,20,16,11,72,61,55,30.34,30.17,12,2,12,0.00
2013-4-3,44,30,12,26,18,8,90,63,48,30.46,30.23,10,3,11,0.00
2013-4-4,49,39,29,34,27,20,74,62,54,30.23,29.96,13,6,13,0.00
2013-4-5,46,35,22,30,23,17,84,64,50,30.26,30.11,8,2,8,0.00
2013-4-6,50,38,30,45,34,27,100,87,62,30.17,29.52,10,4,10,0.23
2013-4-7,44,38,34,39,32,29,100,81,66,29.96,29.58,8,3,8,0.00
2013-4-8,39,36,35,39,35,31,100,94,83,30.05,29.78,13,3,13,0.16
2013-4-9,40,36,32,40,35,24,100,97,66,30.11,29.96,17,5,17,0.71
2013-4-10,37,33,29,35,31,22,100,91,60,30.17,29.99,12,2,12,0.75
2013-4-11,34,32,29,34,29,22,100,90,61,29.99,29.69,17,5,17,0.22
2013-4-12,37,32,29,34,31,28,100,94,74,29.78,29.61,13,3,13,0.00
2013-4-13,36,32,25,32,27,20,100,83,62,30.02,29.75,8,1,8,0.02
2013-4-14,36,30,21,36,29,20,100,95,76,30.05,29.67,23,4,23,0.32
2013-4-15,53,41,34,49,34,26,100,80,52,29.96,29.64,20,4,20,0.28
2013-4-16,46,38,30,32,28,24,82,69,55,30.34,29.96,8,3,8,0.00
2013-4-17,38,35,29,38,31,25,100,85,70,30.37,29.96,14,5,14,0.16
2013-4-18,41,38,36,41,38,36,100,100,100,29.96,29.31,17,6,17,0.24
2013-4-19,37,32,26,37,26,17,100,80,58,29.96,29.28,18,7,18,0.00
2013-4-20,40,31,21,23,18,14,81,60,48,30.37,29.96,10,3,11,0.00
2013-4-21,43,35,26,38,29,17,100,79,68,30.49,30.20,21,3,21,0.11
2013-4-22,49,45,42,49,44,35,100,95,74,30.23,29.99,10,3,11,0.16
2013-4-23,47,39,28,47,33,21,100,80,63,30.05,29.90,12,4,12,0.04
2013-4-24,52,39,23,34,28,21,100,68,48,30.05,29.93,21,4,21,0.00
2013-4-25,49,40,32,38,32,25,100,75,52,30.26,29.93,15,4,15,0.04
2013-4-26,72,54,33,50,40,27,84,60,44,30.26,30.05,21,7,21,0.00
2013-4-27,76,59,46,54,47,41,100,67,46,30.17,30.02,13,6,13,0.00
2013-4-28,76,60,40,53,46,39,100,65,43,30.02,29.75,12,3,12,0.00
2013-4-29,76,62,51,58,52,43,100,71,50,29.81,29.69,15,3,15,0.00
2013-4-30,86,73,58,61,56,42,97,57,44,29.93,29.61,23,8,25,0.00
2013-5-1,70,57,43,50,44,34,95,64,48,30.32,29.93,17,6,17,0.00
2013-5-2,42,38,33,38,33,31,100,82,70,30.37,30.28,15,8,15,0.06
2013-5-3,44,38,33,44,38,33,100,100,99,30.28,30.08,13,5,13,0.49
2013-5-4,73,57,43,53,47,43,100,75,47,30.08,30.02,8,3,8,0.00
2013-5-5,76,58,47,53,46,41,97,66,43,30.11,30.02,13,2,13,0.00
2013-5-6,77,59,42,53,46,40,100,67,41,30.11,29.99,6,1,6,0.00
2013-5-7,84,64,43,56,48,40,100,60,39,30.08,29.96,14,2,14,0.00
2013-5-8,84,66,46,58,48,38,88,54,39,30.02,29.93,13,1,13,0.00
2013-5-9,62,55,44,57,51,44,100,86,53,29.99,29.93,17,4,17,0.63
2013-5-10,66,50,40,48,42,38,100,79,48,30.02,29.90,15,5,15,0.12
2013-5-11,51,46,37,48,37,28,100,73,49,30.05,29.78,16,6,16,0.00
2013-5-12,54,42,33,34,28,20,70,56,45,30.11,30.02,16,5,16,0.00
2013-5-13,65,48,26,42,33,20,91,58,43,30.20,29.84,10,3,10,0.00
2013-5-14,84,66,44,59,49,36,82,56,42,29.84,29.49,14,3,14,0.00
2013-5-15,75,68,54,53,48,43,67,50,43,29.87,29.52,13,4,13,0.00
2013-5-16,84,65,46,58,49,40,100,60,41,30.02,29.84,13,2,13,0.02
2013-5-17,57,52,48,54,48,38,100,87,53,30.11,29.99,8,3,8,0.53
2013-5-18,78,63,50,64,57,50,100,82,58,30.08,29.93,12,2,12,0.00
2013-5-19,86,72,60,66,62,56,100,75,48,29.93,29.67,18,3,18,0.00
2013-5-20,86,72,62,66,61,58,100,74,45,29.78,29.61,25,5,25,0.32
2013-5-21,76,68,60,68,60,55,100,78,57,29.69,29.58,17,6,17,0.43
2013-5-22,64,58,52,62,58,52,100,99,84,29.84,29.67,15,3,15,0.50
2013-5-23,63,53,42,52,42,34,100,70,46,30.32,29.84,15,8,15,0.08
2013-5-24,69,52,33,48,38,29,100,62,45,30.46,30.26,9,2,9,0.00
2013-5-25,69,57,45,48,42,37,85,59,45,30.37,30.26,9,2,9,0.00
2013-5-26,70,56,38,49,42,35,99,62,47,30.32,30.17,11,2,11,0.00
2013-5-27,61,55,51,52,47,38,100,76,56,30.17,29.93,9,2,9,0.14
2013-5-28,59,55,51,59,55,51,100,100,100,29.93,29.72,7,0,7,0.24
2013-5-29,86,68,57,71,62,57,100,84,47,29.87,29.78,13,3,13,0.59
2013-5-30,85,70,63,72,67,63,100,91,54,29.87,29.67,20,5,20,0.87
2013-5-31,80,70,63,65,62,58,100,77,51,29.75,29.64,16,8,16,0.00
2013-6-1,78,66,54,66,58,49,100,75,52,29.75,29.58,18,4,18,0.20
2013-6-2,62,53,45,49,42,37,94,67,51,30.02,29.75,16,5,16,0.00
2013-6-3,72,58,39,55,46,39,100,69,46,30.08,29.99,11,2,11,0.00
2013-6-4,60,54,51,55,50,45,100,88,61,30.20,30.08,24,1,7,0.89
2013-6-5,59,53,50,57,52,50,100,99,87,30.14,29.96,13,1,13,0.51
2013-6-6,56,53,51,55,52,32,100,99,92,29.99,29.96,11,1,11,0.20
2013-6-7,67,58,50,57,52,46,100,81,62,30.02,29.93,8,2,8,0.00
2013-6-8,69,59,53,61,54,49,100,87,51,30.02,29.93,9,1,9,0.08
2013-6-9,75,63,53,61,56,50,100,80,57,30.02,29.84,8,2,8,0.04
2013-6-10,83,69,58,65,61,58,100,78,53,29.87,29.78,7,1,7,0.00
2013-6-11,81,68,55,68,61,55,100,80,55,29.90,29.81,9,1,9,0.00
2013-6-12,80,67,59,66,62,58,100,84,56,29.93,29.72,12,2,12,0.18
2013-6-13,78,67,59,61,56,51,100,71,46,30.11,29.81,14,4,14,0.00
2013-6-14,81,67,50,58,54,48,100,65,45,30.14,29.96,9,2,9,0.00
2013-6-15,80,68,60,67,62,54,100,84,62,30.05,29.78,19,4,19,2.72
2013-6-16,82,70,55,67,58,52,100,71,44,29.90,29.84,14,2,14,0.00
2013-6-17,82,68,56,62,58,52,100,71,45,30.02,29.87,13,3,13,0.00
2013-6-18,74,63,50,58,50,41,98,64,46,30.11,30.02,9,3,9,0.00
2013-6-19,81,72,62,59,54,47,78,54,45,30.14,30.05,9,3,9,0.00
2013-6-20,89,74,59,64,58,52,79,58,43,30.11,30.02,14,4,14,0.00
2013-6-21,77,70,64,70,64,58,100,83,64,30.05,29.78,16,4,16,0.90
2013-6-22,83,70,65,72,67,65,100,91,60,30.08,29.90,12,2,12,0.30
2013-6-23,86,74,65,72,67,63,100,79,50,29.96,29.81,18,6,18,0.16
2013-6-24,84,73,65,73,68,65,100,85,60,29.96,29.84,18,4,18,0.00
2013-6-25,85,74,66,71,68,64,100,83,56,29.90,29.78,12,3,12,0.04
2013-6-26,87,76,70,75,69,65,100,83,51,29.81,29.69,12,2,12,0.00
2013-6-27,87,74,65,72,66,28,100,77,45,29.81,29.69,13,2,13,0.00
2013-6-28,73,67,63,69,63,57,100,86,62,29.72,29.64,17,2,17,0.75
2013-6-29,72,65,60,66,60,48,100,85,59,29.90,29.69,15,6,15,0.04
2013-6-30,82,67,54,57,52,47,85,59,42,30.08,29.90,14,5,14,0.00
2013-7-1,85,68,53,60,56,52,100,67,44,30.17,30.08,12,2,12,0.00
2013-7-2,79,67,56,56,52,46,81,59,45,30.14,30.14,12,2,12,0.00
2013-7-3,75,64,53,61,54,47,97,71,55,30.14,30.14,8,1,12,0.00
2013-7-4,87,71,60,66,61,32,100,74,44,30.14,29.99,13,4,13,0.00
2013-7-5,88,75,61,66,62,58,100,66,43,30.02,29.93,16,5,16,0.00
2013-7-6,92,77,65,67,64,62,92,67,43,29.99,29.90,16,5,16,0.00
2013-7-7,92,76,67,73,69,63,100,81,46,29.96,29.84,13,4,13,0.28
2013-7-8,88,77,69,77,70,67,100,82,54,29.99,29.84,12,2,12,0.42
2013-7-9,85,75,67,80,71,67,100,87,60,29.99,29.78,14,3,14,0.12
2013-7-10,77,70,59,72,60,54,100,71,49,30.02,29.81,16,4,16,0.00
2013-7-11,86,70,55,67,58,54,100,70,43,30.11,30.02,10,1,10,0.00
2013-7-12,87,72,57,63,58,53,100,64,44,30.14,30.02,13,4,13,0.00
2013-7-13,86,73,63,64,59,52,77,61,45,30.14,30.05,14,3,14,0.00
2013-7-14,92,76,60,67,63,54,91,66,44,30.23,30.14,11,3,11,0.00
2013-7-15,90,76,64,72,67,64,100,75,51,30.28,30.20,9,1,9,0.02
2013-7-16,93,80,69,74,70,66,100,76,48,30.26,30.20,14,3,14,0.00
2013-7-17,95,82,70,78,69,66,100,70,43,30.24,29.00,9,3,9,0.00
2013-7-18,95,82,70,74,69,66,100,69,43,30.12,29.82,17,6,17,0.00
2013-7-19,93,79,64,74,65,56,100,63,42,29.82,29.70,18,5,18,0.04
2013-7-20,80,69,57,65,57,54,100,69,46,29.94,29.79,13,2,13,0.00
2013-7-21,69,62,56,63,56,50,100,82,62,29.97,29.88,15,1,15,0.18
2013-7-22,88,72,58,68,63,58,100,78,48,29.88,29.62,14,4,14,0.00
2013-7-23,72,65,54,61,50,44,83,59,47,29.97,29.70,16,6,16,0.00
2013-7-24,75,62,46,55,49,43,100,65,46,30.06,29.97,9,2,9,0.00
2013-7-25,81,65,51,66,58,50,100,81,50,30.00,29.91,20,4,20,0.37
2013-7-26,77,64,53,69,58,45,100,83,48,29.94,29.79,15,5,15,0.12
2013-7-27,60,52,46,50,45,40,100,78,61,29.94,29.82,12,3,12,0.02
2013-7-28,67,55,48,52,50,47,100,83,59,29.97,29.82,13,3,13,0.00
2013-7-29,77,62,48,57,52,45,99,73,48,30.12,29.97,13,3,13,0.00
2013-7-30,80,65,55,62,57,54,100,79,46,30.15,30.03,50,2,50,0.04
2013-7-31,79,66,59,67,62,58,100,87,51,30.06,29.91,13,2,13,0.16
2013-8-1,76,64,50,59,53,50,100,71,45,29.97,29.85,20,2,20,0.00
2013-8-2,77,65,52,63,54,50,100,70,46,29.97,29.79,14,2,14,0.00
2013-8-3,75,62,46,56,50,46,100,68,45,30.12,29.97,13,3,13,0.00
2013-8-4,74,62,47,57,49,45,100,67,45,30.21,30.06,13,2,13,0.00
2013-8-5,75,63,54,63,58,50,100,84,58,30.06,29.79,12,4,12,0.00
2013-8-6,83,71,62,68,61,57,100,76,44,29.82,29.67,13,4,13,0.22
2013-8-7,75,64,54,64,56,-6,100,79,50,30.00,29.70,13,3,13,0.20
2013-8-8,79,63,45,62,51,45,100,70,45,30.03,29.94,15,2,15,0.00
2013-8-9,77,66,57,60,54,48,97,68,46,30.06,29.94,26,2,26,0.00
2013-8-10,72,63,52,55,52,48,94,67,48,30.12,30.06,12,0,12,0.00
2013-8-11,69,59,51,64,58,50,100,95,73,30.09,30.00,24,0,24,0.18
2013-8-12,80,64,55,69,56,47,100,78,46,30.00,29.88,56,2,56,0.20
2013-8-13,70,58,46,49,46,42,100,67,47,30.15,30.00,14,3,28,0.00
2013-8-14,72,58,42,50,47,42,100,68,46,30.18,30.06,15,1,14,0.00
2013-8-15,77,62,45,57,51,45,100,71,45,30.09,30.03,36,2,36,0.00
2013-8-16,82,64,48,60,52,47,100,70,44,30.15,30.09,16,1,16,0.00
2013-8-17,85,66,49,62,54,49,100,69,43,30.21,30.09,12,0,12,0.00
2013-8-18,86,67,51,60,55,51,100,70,43,30.18,30.03,9,1,22,0.00
2013-8-19,84,68,54,62,58,53,100,74,45,30.03,29.94,12,1,12,0.00
2013-8-20,90,73,59,67,63,40,100,73,44,30.00,29.91,16,1,16,0.04
2013-8-21,93,75,64,71,66,63,100,77,47,29.94,29.82,28,3,28,0.42
2013-8-22,83,68,60,65,59,54,100,75,44,30.94,28.44,9,2,9,0.00
2013-8-23,84,68,55,60,56,52,100,68,44,30.12,27.11,52,2,52,0.00
2013-8-24,86,71,56,65,59,51,94,67,43,30.21,30.09,28,5,28,0.00
2013-8-25,94,79,68,71,68,64,98,72,45,30.09,30.00,20,9,20,0.00
2013-8-26,92,78,67,75,68,62,100,73,47,30.12,29.88,18,5,18,0.48
2013-8-27,94,80,73,76,73,69,100,81,49,29.91,29.76,13,4,13,0.02
2013-8-28,86,75,69,73,68,64,100,80,53,30.03,29.88,9,3,9,0.00
2013-8-29,91,76,63,71,65,62,100,72,43,30.06,29.91,15,4,15,0.00
2013-8-30,84,75,64,75,66,60,100,76,54,29.91,29.79,15,5,15,0.00
2013-8-31,83,67,56,65,61,56,100,82,52,29.88,29.76,9,2,9,0.00
2013-9-1,81,70,63,72,62,56,100,78,51,29.82,29.70,15,4,15,0.00
2013-9-2,65,59,51,59,51,47,99,76,60,30.00,29.82,12,5,12,0.00
2013-9-3,74,58,41,55,48,41,100,74,46,30.06,29.94,9,2,9,0.00
2013-9-4,80,64,48,63,56,46,100,79,54,30.12,29.97,12,3,12,0.00
2013-9-5,77,63,52,60,52,46,100,71,45,30.26,30.12,12,3,12,0.00
2013-9-6,90,69,48,65,55,43,89,63,44,30.18,29.91,15,5,15,0.00
2013-9-7,89,74,65,68,63,60,93,71,47,30.00,29.85,13,4,13,0.00
2013-9-8,76,66,56,61,56,52,91,71,49,30.09,29.91,12,4,12,0.00
2013-9-9,90,75,63,71,65,60,93,74,53,29.94,29.70,15,4,15,0.00
2013-9-10,92,78,67,69,64,61,100,66,43,29.91,29.73,13,4,13,0.02
2013-9-11,86,71,58,67,61,51,100,74,43,30.00,29.91,37,3,37,0.00
2013-9-12,70,62,48,58,52,41,100,73,48,30.15,29.94,14,6,14,0.00
2013-9-13,68,51,37,48,40,36,100,70,47,30.24,30.03,13,3,13,0.00
2013-9-14,72,55,37,50,44,37,100,69,46,30.12,29.94,15,4,15,0.00
2013-9-15,64,55,48,59,52,39,100,88,67,30.26,29.94,15,4,15,0.74
2013-9-16,65,48,36,45,40,36,100,75,48,30.41,30.26,10,2,10,0.00
2013-9-17,68,52,35,56,46,35,100,82,50,30.32,30.06,14,2,14,0.00
2013-9-18,78,64,55,66,60,55,100,88,62,30.06,29.79,15,4,15,0.10
2013-9-19,83,70,65,73,67,65,100,91,60,29.82,29.67,17,5,17,0.47
2013-9-20,66,61,51,65,59,50,100,92,62,29.82,29.67,18,3,18,0.08
2013-9-21,55,49,43,50,44,39,100,86,61,29.97,29.82,50,3,50,0.00
2013-9-22,63,46,32,44,39,32,100,78,48,30.09,29.97,36,1,36,0.00
2013-9-23,68,51,37,52,45,37,100,81,52,30.12,30.00,25,2,24,0.00
2013-9-24,72,54,43,58,48,43,100,82,47,30.03,29.94,22,1,22,0.00
2013-9-25,70,53,38,56,47,38,100,83,49,30.03,29.94,17,1,17,0.00
2013-9-26,76,57,40,63,49,40,100,80,47,30.06,29.97,20,2,20,0.00
2013-9-27,82,63,46,58,50,44,100,67,44,30.09,29.97,13,4,13,0.00
2013-9-28,78,61,50,65,52,45,100,74,48,30.00,29.76,25,6,25,0.34
2013-9-29,72,54,39,58,46,39,100,80,46,30.03,29.91,38,4,38,0.00
2013-9-30,72,57,47,50,45,41,83,64,46,29.94,29.73,22,6,22,0.00
2013-10-1,76,62,50,60,51,38,100,69,48,29.94,29.73,17,6,17,0.00
2013-10-2,78,55,35,53,42,35,100,67,40,30.09,29.91,12,1,12,0.00
2013-10-3,70,58,50,62,51,39,100,81,50,29.94,29.82,28,4,28,0.19
2013-10-4,56,54,53,56,54,53,100,100,100,30.03,29.88,44,5,24,0.36
2013-10-5,62,58,54,62,58,54,100,100,100,30.00,29.70,47,4,45,1.64
2013-10-6,58,49,41,56,43,37,100,81,53,29.70,29.65,18,2,18,0.00
2013-10-7,62,49,38,48,42,38,100,81,49,30.03,29.67,15,4,15,0.00
2013-10-8,75,54,35,53,44,35,100,73,45,30.09,30.00,20,4,20,0.00
2013-10-9,73,58,48,52,46,42,89,67,47,30.15,30.03,15,4,15,0.00
2013-10-10,73,55,39,54,45,39,100,74,46,30.12,30.00,18,2,18,0.00
2013-10-11,73,59,46,58,52,45,100,79,55,30.03,29.85,12,3,12,0.00
2013-10-12,68,59,45,57,47,35,84,65,48,30.09,29.82,15,6,15,0.00
2013-10-13,57,45,33,42,37,32,100,74,51,30.38,30.09,44,3,29,0.00
2013-10-14,60,44,28,45,37,28,100,79,49,30.41,30.12,25,2,25,0.00
2013-10-15,54,49,43,54,48,40,100,97,89,30.12,29.67,47,4,47,0.91
2013-10-16,50,46,42,48,42,37,100,87,67,29.91,29.70,13,3,13,0.00
2013-10-17,55,40,30,46,36,30,100,87,52,29.88,29.73,12,1,12,0.00
2013-10-18,45,40,32,45,39,32,100,96,77,29.91,29.73,15,3,15,0.02
2013-10-19,51,36,28,40,34,28,100,93,52,29.88,29.65,13,2,13,0.08
2013-10-20,42,36,28,42,36,28,100,100,98,29.82,29.65,13,1,13,0.04
2013-10-21,41,34,30,41,26,20,99,75,57,29.88,29.67,13,6,13,0.00
2013-10-22,42,33,25,29,24,20,99,71,54,29.97,29.85,12,4,12,0.00
2013-10-23,39,30,24,30,24,18,96,79,61,30.00,29.94,29,2,29,0.00
2013-10-24,40,33,27,28,24,22,93,71,56,30.26,30.00,45,4,45,0.00
2013-10-25,48,38,27,33,30,25,100,76,54,30.30,29.73,20,7,20,0.00
2013-10-26,49,42,37,36,31,28,77,64,54,30.03,29.67,24,5,24,0.00
2013-10-27,53,37,26,35,29,23,100,74,51,30.06,29.79,15,4,15,0.00
2013-10-28,42,33,22,30,23,17,84,67,54,30.41,30.06,16,4,16,0.00
2013-10-29,41,33,21,40,28,17,99,84,76,30.41,30.12,8,3,8,0.00
2013-10-30,50,43,38,50,43,38,100,100,99,30.12,29.73,40,1,40,0.00
2013-10-31,53,49,40,53,49,40,100,100,100,29.73,29.26,44,2,44,0.08
2013-11-1,43,40,39,43,40,39,100,98,88,29.73,29.26,13,3,13,0.00
2013-11-2,41,36,27,39,36,27,100,98,76,30.15,29.73,13,2,13,0.08
2013-11-3,48,34,22,42,31,22,100,87,62,30.26,30.12,10,2,10,0.00
2013-11-4,50,44,39,45,38,33,100,80,62,30.15,29.94,17,7,17,0.04
2013-11-5,50,40,28,46,39,28,100,94,62,30.24,29.85,126,3,126,0.73
2013-11-6,40,35,27,40,30,20,100,85,61,30.12,29.73,13,6,13,0.28
2013-11-7,37,28,21,28,23,20,100,82,58,30.21,30.12,12,2,12,0.00
2013-11-8,40,32,22,39,29,22,100,89,69,30.24,29.73,12,2,12,0.04
2013-11-9,45,41,37,44,35,26,100,80,60,30.03,29.65,16,7,16,0.04
2013-11-10,46,40,37,31,29,26,75,65,54,30.26,30.03,15,6,15,0.00
2013-11-11,39,29,21,35,20,12,100,69,56,30.56,30.03,13,1,13,0.02
2013-11-12,27,21,14,14,12,9,81,68,56,30.68,30.50,12,3,12,0.00
2013-11-13,46,30,14,30,20,10,86,67,54,30.50,29.94,26,4,26,0.00
2013-11-14,48,37,29,37,27,20,91,68,53,29.94,29.79,20,5,20,0.04
2013-11-15,52,37,25,42,32,25,100,83,55,29.88,29.79,8,2,8,0.00
2013-11-16,56,45,36,56,44,32,100,95,81,29.82,29.38,15,6,15,0.81
2013-11-17,54,46,37,54,45,28,100,94,70,29.62,29.20,20,7,20,0.12
2013-11-18,36,30,24,29,21,18,78,69,61,30.24,29.62,49,10,25,0.00
2013-11-19,37,28,15,28,21,14,100,78,58,30.35,30.18,19,2,19,0.00
2013-11-20,39,35,32,34,29,27,100,80,64,30.18,30.06,30,5,30,0.00
2013-11-21,38,36,32,38,35,29,100,99,88,30.30,30.09,15,2,15,0.04
2013-11-22,32,28,22,30,20,13,100,75,55,30.47,30.30,92,5,92,0.00
2013-11-23,22,13,5,14,2,-6,70,61,59,30.71,30.41,69,4,69,0.00
2013-11-24,24,14,1,11,2,-10,67,59,57,30.71,30.15,70,8,70,0.00
2013-11-25,34,29,23,26,20,10,79,69,57,30.15,29.94,22,8,22,0.00
2013-11-26,34,22,10,25,11,1,78,63,57,30.24,29.97,20,8,20,0.00
2013-11-27,25,17,8,17,8,-1,86,66,57,30.26,30.11,87,5,87,0.01
2013-11-28,25,19,9,19,14,3,92,81,64,30.44,30.08,126,19,126,0.00
2013-11-29,30,16,1,20,11,-2,93,80,66,30.55,30.23,126,18,126,0.00
2013-11-30,39,32,24,28,24,17,81,74,65,30.23,29.93,126,4,126,0.00
2013-12-1,38,27,20,31,23,18,100,85,64,30.11,29.93,72,4,72,0.00
2013-12-2,36,29,17,34,26,17,100,91,76,29.93,29.70,77,3,77,0.00
2013-12-3,33,32,29,33,32,29,100,100,100,29.70,29.70,96,9,96,0.82
2013-12-4,39,33,29,39,33,29,100,100,98,29.70,29.70,77,9,70,0.10
2013-12-5,32,16,5,30,8,-4,95,70,61,29.70,29.70,29,7,29,0.00
2013-12-6,9,3,-1,-1,-6,-10,65,65,65,30.47,29.70,77,2,77,0.00
2013-12-7,8,-1,-6,-2,-10,-15,65,65,65,30.59,30.47,125,7,125,0.00
2013-12-8,11,6,-3,2,-3,-12,65,65,65,30.50,29.91,76,0,69,0.00
2013-12-9,14,5,-6,4,-4,-15,65,65,65,30.06,29.85,0,0,0,0.12
2013-12-10,10,4,-8,1,-5,-17,65,65,65,30.15,29.76,0,0,0,0.00
2013-12-11,8,-1,-11,-2,-10,-20,65,65,65,30.38,30.12,0,0,0,0.00
2013-12-12,17,7,-8,11,-1,-17,76,68,65,30.32,30.09,0,0,0,0.02
2013-12-13,17,15,11,11,7,3,76,71,68,30.18,30.09,0,0,0,0.00
2013-12-14,20,15,11,16,10,3,95,78,69,30.11,29.79,0,0,0,0.02
2013-12-15,13,1,-11,8,-3,-15,81,81,81,29.99,29.79,0,0,0,0.00
2013-12-16,12,3,-11,8,-1,-15,81,81,81,29.99,29.82,29,0,29,0.01
2013-12-17,30,22,12,27,17,7,100,82,65,29.93,29.70,86,2,78,0.05
2013-12-18,28,16,1,19,8,-7,82,70,62,29.96,29.58,85,3,85,0.00
2013-12-19,32,21,13,32,17,8,100,86,71,29.90,29.64,70,6,70,0.00
2013-12-20,23,20,18,21,18,14,100,89,81,29.88,29.73,32,6,32,0.06
2013-12-21,27,24,21,27,23,18,100,96,79,29.88,29.70,48,6,48,0.00
2013-12-22,24,22,19,22,20,17,100,91,77,30.05,29.76,20,5,20,0.16
2013-12-23,20,12,-7,20,9,-12,100,89,80,30.41,30.05,126,2,126,0.08
2013-12-24,11,-2,-18,6,-6,-22,81,81,81,30.52,30.20,126,3,126,0.04
2013-12-25,19,14,8,19,10,3,99,86,81,30.20,29.99,0,0,0,0.13
2013-12-26,21,15,8,15,11,3,92,82,75,30.17,30.02,13,0,13,0.04
2013-12-27,34,22,4,29,20,2,100,92,78,30.17,29.88,13,0,13,0.00
2013-12-28,44,29,16,40,26,16,100,91,67,29.96,29.67,6,0,4,0.04
2013-12-29,34,13,-9,32,6,-16,100,75,69,30.23,29.67,36,4,36,0.00
2013-12-30,32,-8,-22,-8,-16,-28,70,70,70,30.35,30.17,126,1,126,0.01
2013-12-31,6,-2,-16,-2,-10,-23,70,70,70,30.41,30.17,126,2,126,0.00
2014-1-1,7,1,-16,-1,-7,-23,70,70,70,30.44,30.35,12,0,0,0.00
2014-1-2,9,2,-15,1,-6,-22,70,70,70,30.47,30.32,48,2,48,0.00